Simultaneous Nadir Overpasses (SNOs) Predictions

Prediction of SNOs between GOES-16 and AQUA Satellite Orbit:

Table of predicted SNOs for the next 14.0 days since TLE Epoch: 2/16/2018
Index Date Time (GOES-16) GOES-16 Lat,Lon AQUA Lat,Lon Distance(km) Time Diff (sec)
1 02/17/2018 06:30:05 -0.01, -75.18 -0.32, -73.87 149.73 80
2 02/17/2018 18:51:29 0.01, -75.20 -0.78, -79.07 439.16 80
3 02/19/2018 06:17:55 -0.01, -75.19 -0.95, -70.92 486.16 80
4 02/19/2018 18:39:20 0.01, -75.20 -0.15, -76.11 102.56 80
5 02/21/2018 18:29:49 0.01, -75.21 0.43, -73.14 234.45 80
6 02/22/2018 06:51:04 -0.02, -75.20 0.64, -78.31 352.99 80
7 02/24/2018 06:38:54 -0.02, -75.21 -0.00, -75.35 16.02 80
8 02/26/2018 06:24:05 -0.02, -75.22 -0.65, -72.40 321.34 80
9 02/26/2018 18:45:28 0.02, -75.23 -0.50, -77.58 267.43 80
10 02/28/2018 18:35:58 0.03, -75.25 0.15, -74.63 70.80 80
11 03/02/2018 18:23:48 0.03, -75.28 0.81, -71.68 409.98 80




NCC Satellite Simultaneous Nadir Overpasses (SNOs) Prediction Service
